Date,TemperatureHighF,TemperatureAvgF,TemperatureLowF,DewpointHighF,DewpointAvgF,DewpointLowF,HumidityHigh,HumidityAvg,HumidityLow,PressureMaxIn,PressureMinIn,WindSpeedMaxMPH,WindSpeedAvgMPH,GustSpeedMaxMPH,PrecipitationSumIn
2013-1-1,51.2,47.6,38.9,50.7,46.4,38.4,98,96,78,30.11,29.99,0,0,0,1.89
2013-1-2,39.0,35.3,33.2,38.5,34.2,32.4,98,96,93,30.27,30.08,0,0,0,0.00
2013-1-3,41.5,33.7,27.9,32.5,29.4,25.4,97,85,58,30.45,30.22,0,0,0,0.00
2013-1-4,46.6,33.4,25.8,28.9,25.5,22.5,93,75,40,30.52,30.41,0,0,0,0.01
2013-1-5,48.8,37.0,27.0,37.4,30.1,24.7,97,79,42,30.47,30.32,0,0,0,0.10
2013-1-6,48.7,40.0,33.8,40.5,36.7,31.4,98,89,66,30.37,30.24,0,0,0,0.03
2013-1-7,51.2,37.6,28.2,34.4,30.3,26.4,95,77,45,30.44,30.33,0,0,0,0.00
2013-1-8,57.1,45.7,34.4,46.2,38.7,29.6,87,77,63,30.41,30.30,0,0,0,0.00
2013-1-9,56.3,52.1,47.8,54.6,50.4,44.3,98,94,86,30.42,30.33,0,0,0,0.34
2013-1-10,64.5,59.1,55.0,61.1,57.7,53.1,98,95,88,30.39,30.07,0,0,0,0.07
2013-1-11,65.5,63.5,61.2,63.9,62.0,59.9,99,95,87,30.15,30.07,0,0,0,0.36
2013-1-12,70.9,66.2,63.6,66.9,63.2,58.6,99,90,83,30.10,29.94,0,0,0,0.07
2013-1-13,68.2,60.6,40.9,64.4,58.5,39.8,98,93,84,30.13,29.92,0,0,0,2.01
2013-1-14,41.0,37.1,32.8,40.2,36.3,32.0,98,97,95,30.30,30.12,0,0,0,2.34
2013-1-15,44.3,39.0,35.3,44.0,38.5,34.8,99,98,97,30.20,29.99,0,0,0,1.26
2013-1-16,41.9,38.1,36.6,41.6,37.5,35.8,99,98,97,30.14,29.99,0,0,0,0.15
2013-1-17,38.7,35.7,31.9,38.2,34.6,30.9,98,96,89,30.44,29.91,0,0,0,0.26
2013-1-18,48.2,35.8,26.9,36.7,30.9,25.7,98,84,42,30.64,30.44,0,0,0,0.29
2013-1-19,54.8,41.6,29.2,35.4,31.2,27.3,95,69,41,30.48,30.27,6,1,12,0.01
2013-1-20,58.6,44.0,34.9,40.9,35.7,32.0,93,75,44,30.29,30.17,4,1,7,0.00
2013-1-21,46.3,36.9,29.6,34.4,26.2,18.3,97,68,38,30.30,30.16,7,2,11,0.00
2013-1-22,40.2,31.8,23.6,23.4,17.6,11.8,75,56,39,30.45,30.29,6,2,11,0.00
2013-1-23,54.6,43.1,33.5,39.0,30.3,19.0,75,61,47,30.44,30.25,7,2,11,0.00
2013-1-24,47.3,41.4,34.9,41.3,27.3,16.0,83,59,35,30.40,30.23,8,3,13,0.00
2013-1-25,49.3,42.9,36.0,45.2,33.8,16.2,98,73,41,30.32,30.14,10,4,19,0.09
2013-1-26,52.0,41.6,33.5,39.0,34.0,28.6,98,77,43,30.37,30.23,6,2,8,0.00
2013-1-27,50.0,45.7,40.5,40.1,36.9,34.1,82,71,61,30.42,30.34,8,4,15,0.00
2013-1-28,63.4,52.9,44.6,54.4,46.5,35.6,93,79,64,30.38,30.22,10,5,17,0.00
2013-1-29,67.0,59.9,50.9,63.1,57.8,49.8,98,93,87,30.22,29.80,9,6,18,0.00
2013-1-30,68.4,53.4,35.8,65.3,50.6,27.4,98,90,71,29.96,29.58,12,6,27,2.57
2013-1-31,47.9,38.5,29.5,29.5,27.1,25.3,87,65,42,30.22,29.96,7,4,16,0.00
2013-2-1,41.7,30.9,24.5,33.9,18.4,12.3,80,61,40,30.49,30.19,6,2,16,0.00
2013-2-2,43.2,32.8,23.5,36.7,26.9,15.8,98,80,58,30.41,30.20,5,2,8,0.24
2013-2-3,53.4,41.6,32.2,39.4,31.9,26.8,98,72,40,30.23,30.11,8,3,14,0.01
2013-2-4,50.0,40.7,30.7,34.4,31.4,27.6,91,71,50,30.17,30.01,5,2,10,0.00
2013-2-5,56.6,47.5,41.1,49.0,41.5,34.0,98,80,64,30.09,29.99,7,2,10,0.00
2013-2-6,62.2,47.6,35.4,48.0,38.2,34.0,99,74,38,30.23,30.09,6,1,9,0.00
2013-2-7,51.5,48.8,46.4,48.0,44.3,37.0,96,85,60,30.15,29.97,13,4,16,0.09
2013-2-8,48.9,43.5,30.8,48.0,41.0,29.0,98,91,80,30.30,29.95,13,3,19,0.52
2013-2-9,58.7,43.1,29.0,36.0,31.6,28.0,96,68,35,30.36,30.22,8,3,11,0.00
2013-2-10,57.0,51.3,48.2,56.0,43.9,33.0,97,77,54,30.23,29.97,18,7,27,1.10
2013-2-11,56.9,52.2,43.9,56.0,48.2,40.0,98,87,65,30.20,30.00,9,1,11,0.02
2013-2-12,48.7,43.8,39.7,41.0,38.5,34.0,93,82,58,30.18,29.82,10,3,18,0.37
2013-2-13,46.2,41.9,33.6,45.0,39.8,33.0,98,92,84,30.07,29.74,11,3,21,0.05
2013-2-14,54.8,44.2,31.6,41.7,37.3,31.0,98,78,53,30.15,30.07,5,2,9,0.00
2013-2-15,57.8,44.0,35.0,43.2,36.3,30.4,95,76,46,30.16,30.08,5,2,12,0.01
2013-2-16,41.0,33.1,25.1,30.5,20.5,14.7,76,61,39,30.28,30.10,7,2,11,0.00
2013-2-17,46.4,33.5,19.4,25.1,17.8,13.4,84,55,33,30.38,30.27,6,2,8,0.00
2013-2-18,59.5,47.8,35.1,40.2,29.0,17.9,86,49,38,30.33,29.98,13,7,23,0.14
2013-2-19,52.0,44.2,31.8,45.3,33.0,21.1,97,68,36,30.27,29.96,7,4,13,0.50
2013-2-20,41.0,34.3,27.1,24.6,20.4,13.9,84,58,37,30.32,30.21,8,2,10,0.00
2013-2-21,55.1,43.1,31.5,45.6,30.6,19.7,96,65,29,30.23,29.91,15,5,19,1.45
2013-2-22,48.1,46.2,44.0,46.4,45.0,43.2,98,96,94,30.11,29.98,10,4,15,0.09
2013-2-23,48.7,44.6,36.6,47.3,43.6,36.1,99,97,89,30.05,29.92,4,1,6,0.34
2013-2-24,57.5,42.8,30.8,37.8,34.5,30.3,98,76,40,30.13,30.00,4,1,7,0.00
2013-2-25,56.4,47.8,42.3,43.3,37.3,29.7,94,67,55,30.00,29.55,15,7,24,0.22
2013-2-26,48.6,43.8,39.6,44.9,39.1,33.6,97,84,66,29.85,29.50,15,8,29,0.39
2013-2-27,56.3,45.0,38.3,39.1,34.6,30.7,85,68,46,29.98,29.85,9,4,14,0.00
2013-2-28,39.3,36.5,33.9,34.9,29.1,26.6,90,75,65,30.11,29.93,6,3,11,0.00
2013-3-1,38.9,35.1,32.1,32.3,30.3,26.6,95,83,72,30.13,30.06,5,2,8,0.00
2013-3-2,35.4,32.0,29.6,30.6,29.0,25.1,95,89,79,30.19,30.07,5,3,12,0.08
2013-3-3,41.5,32.4,26.7,25.8,21.8,17.9,87,66,41,30.22,30.15,6,2,12,0.02
2013-3-4,58.0,45.0,28.3,43.0,28.6,20.4,82,55,36,30.23,29.96,8,4,15,0.00
2013-3-5,60.4,49.0,34.9,56.6,44.5,27.9,93,84,70,30.06,29.70,13,6,18,0.28
2013-3-6,42.6,34.9,29.6,30.6,26.2,20.9,87,71,60,30.32,30.06,8,4,17,0.00
2013-3-7,51.7,36.7,26.1,34.7,29.3,24.1,93,76,48,30.40,30.31,7,2,9,0.00
2013-3-8,60.5,43.4,29.1,34.1,28.7,21.2,92,61,22,30.42,30.27,6,2,10,0.00
2013-3-9,65.2,51.9,39.4,38.9,33.6,27.3,72,51,35,30.30,30.11,8,4,13,0.00
2013-3-10,72.0,61.5,49.2,49.9,41.3,34.0,64,48,37,30.14,29.92,13,8,20,0.00
2013-3-11,62.1,50.3,36.7,52.2,45.8,33.8,97,86,64,29.99,29.80,13,5,21,1.30
2013-3-12,53.3,41.9,31.4,37.1,32.9,28.8,92,72,49,30.22,29.98,6,2,10,0.01
2013-3-13,49.4,41.0,33.7,32.2,26.8,21.0,84,59,36,30.41,30.19,8,3,13,0.00
2013-3-14,54.4,40.1,26.8,31.2,21.2,14.4,76,50,22,30.48,30.30,7,2,10,0.00
2013-3-15,73.4,56.4,39.0,49.0,37.2,21.6,59,49,37,30.30,29.99,9,4,20,0.00
2013-3-16,74.0,61.8,52.2,49.4,45.6,42.6,76,57,38,30.01,29.89,9,5,21,0.00
2013-3-17,67.9,59.9,50.3,55.6,50.8,45.6,93,73,55,30.00,29.88,10,4,17,0.00
2013-3-18,69.5,59.0,52.1,61.9,55.5,49.0,96,88,76,29.94,29.76,11,5,20,0.35
2013-3-19,59.5,49.6,37.2,48.5,34.9,22.5,95,61,35,30.17,29.94,8,3,10,0.00
2013-3-20,56.4,45.7,38.2,31.1,25.8,15.6,66,47,27,30.20,30.01,6,2,11,0.00
2013-3-21,45.5,36.7,25.8,28.6,19.3,12.8,80,51,30,30.13,29.99,6,2,9,0.00
2013-3-22,45.9,40.7,35.2,39.8,32.6,23.6,92,73,52,30.10,30.00,7,3,10,0.18
2013-3-23,53.4,47.3,42.0,50.4,45.7,39.8,97,94,88,30.01,29.72,9,4,14,1.33
2013-3-24,61.0,50.0,37.7,54.3,45.2,27.9,98,84,64,29.83,29.52,12,6,35,1.01
2013-3-25,39.0,34.8,32.5,29.1,25.4,23.0,81,68,58,30.20,29.83,8,5,15,0.00
2013-3-26,39.3,34.5,30.6,29.1,27.1,25.5,84,74,63,30.41,30.18,6,3,11,0.00
2013-3-27,51.6,39.1,26.7,32.8,27.9,23.5,89,66,40,30.46,30.34,6,2,11,0.00
2013-3-28,60.9,45.8,32.6,35.0,30.8,27.7,86,59,32,30.42,30.31,7,1,11,0.00
2013-3-29,65.9,53.1,38.7,42.2,37.1,32.7,81,57,35,30.34,30.18,8,2,13,0.00
2013-3-30,67.9,54.8,46.9,54.7,47.7,38.8,97,79,53,30.21,30.00,5,2,9,0.74
2013-3-31,66.8,58.7,54.6,60.1,56.0,53.4,98,91,70,30.00,29.88,8,3,12,0.29
2013-4-1,68.4,57.4,48.3,54.6,48.8,42.1,99,76,43,30.11,29.91,7,2,11,0.00
2013-4-2,58.4,48.5,40.2,43.1,33.8,27.1,85,59,35,30.25,30.10,7,2,13,0.00
2013-4-3,53.0,45.8,41.9,42.4,34.1,24.8,94,66,38,30.23,30.15,8,4,13,0.35
2013-4-4,45.5,43.2,41.3,44.2,41.8,39.8,97,95,92,30.16,30.00,11,5,16,0.67
2013-4-5,63.2,50.8,41.4,47.6,41.5,35.9,98,74,37,30.15,30.03,9,2,14,0.09
2013-4-6,72.6,57.5,41.0,45.8,39.7,36.0,85,55,29,30.20,30.06,9,3,15,0.00
2013-4-7,73.1,61.4,45.9,52.1,47.8,39.7,89,63,41,30.17,30.02,10,3,15,0.00
2013-4-8,75.6,66.0,54.5,60.4,55.4,49.2,91,70,51,30.11,30.01,9,4,15,0.00
2013-4-9,80.3,68.1,54.0,62.7,57.6,52.1,95,71,49,30.17,30.00,11,4,14,0.00
2013-4-10,82.0,71.7,59.2,63.1,58.7,55.1,88,65,46,30.08,29.86,10,4,14,0.00
2013-4-11,73.8,65.7,56.0,66.1,60.2,54.9,97,83,67,29.87,29.53,12,5,19,1.69
2013-4-12,64.4,53.0,42.8,54.6,43.5,37.9,97,73,40,30.02,29.69,6,2,12,0.02
2013-4-13,70.6,56.9,42.5,46.1,43.0,40.4,94,64,35,30.12,30.00,7,2,10,0.00
2013-4-14,59.1,54.9,49.2,53.2,48.6,42.7,91,80,56,30.03,29.87,12,4,18,0.03
2013-4-15,74.3,63.4,53.2,62.7,57.9,52.3,97,83,65,30.09,29.92,8,3,12,0.00
2013-4-16,80.3,69.7,62.5,69.3,64.0,58.9,92,83,67,30.19,30.08,9,4,14,0.00
2013-4-17,84.3,73.3,65.8,70.4,65.7,62.5,94,78,55,30.19,30.02,7,3,10,0.05
2013-4-18,79.4,70.9,62.2,65.3,62.0,58.9,94,75,52,30.02,29.72,11,6,19,0.00
2013-4-19,71.7,49.8,38.2,65.4,44.7,34.7,96,83,62,30.18,29.66,12,3,20,1.34
2013-4-20,60.7,47.2,33.4,39.9,35.0,31.3,96,67,35,30.32,30.18,7,2,12,0.00
2013-4-21,66.5,53.6,39.6,45.2,39.5,35.8,88,62,36,30.37,30.25,7,2,13,0.00
2013-4-22,69.1,58.3,50.6,54.1,46.6,41.5,86,66,49,30.30,30.13,8,3,13,0.00
2013-4-23,73.0,61.7,52.2,56.6,49.4,40.6,86,65,48,30.20,30.04,9,3,16,0.00
2013-4-24,63.8,56.6,45.8,60.8,52.7,41.5,96,87,72,30.26,30.01,7,3,14,0.31
2013-4-25,64.4,50.3,37.4,42.3,38.3,33.0,95,67,34,30.40,30.25,6,2,12,0.00
2013-4-26,72.3,57.4,40.3,48.7,41.4,36.2,90,59,32,30.41,30.25,8,2,10,0.00
2013-4-27,76.4,63.3,54.5,62.2,56.2,47.9,94,79,57,30.31,30.01,10,5,18,0.07
2013-4-28,64.5,60.2,56.0,63.4,59.1,55.3,98,96,91,30.06,29.92,9,3,12,2.28
2013-4-29,71.2,62.1,55.0,59.5,56.6,53.6,99,84,58,30.06,29.95,3,1,8,0.00
2013-4-30,77.2,64.1,50.7,60.7,55.6,50.2,98,77,46,30.06,29.96,6,2,11,0.00
2013-5-1,70.1,65.6,62.2,60.8,58.5,53.9,90,78,70,30.15,30.04,7,4,13,0.00
2013-5-2,65.8,62.2,57.5,60.1,57.0,53.4,87,83,75,30.17,30.08,9,4,13,0.00
2013-5-3,71.2,62.2,50.0,59.7,56.6,48.1,95,83,64,30.08,29.87,11,6,21,0.57
2013-5-4,49.5,45.0,40.4,46.9,43.3,39.1,97,94,82,30.01,29.88,5,2,9,2.58
2013-5-5,57.7,48.1,42.3,52.0,46.2,41.8,98,93,70,29.93,29.84,4,1,6,0.84
2013-5-6,54.1,49.5,47.3,51.8,48.6,46.5,98,97,89,29.95,29.82,4,2,9,1.85
2013-5-7,68.8,54.8,42.3,55.7,49.7,41.8,99,85,55,30.04,29.93,4,1,8,0.00
2013-5-8,76.0,62.8,50.6,63.2,56.1,49.8,98,81,55,30.11,30.02,4,1,9,0.00
2013-5-9,79.8,67.6,55.5,65.0,58.8,54.4,97,76,49,30.15,30.03,4,1,11,0.00
2013-5-10,72.8,65.0,60.0,62.9,59.6,57.8,94,83,66,30.08,29.94,8,3,13,0.08
2013-5-11,72.9,64.8,53.3,68.3,61.0,51.3,97,88,75,30.03,29.92,3,1,7,0.38
2013-5-12,64.8,55.7,45.9,51.9,42.7,34.7,97,65,38,30.19,30.02,7,2,13,0.00
2013-5-13,68.6,54.8,39.1,47.3,41.8,37.0,95,65,36,30.31,30.17,5,1,11,0.00
2013-5-14,79.6,62.3,49.1,61.8,43.5,-99.9,93,61,47,30.25,30.10,7,-66,16,0.00
2013-5-15,82.3,64.0,58.1,62.6,41.1,-99.9,87,57,40,30.18,30.02,5,-102,12,0.00
2013-5-16,80.1,70.4,63.0,65.6,58.8,51.3,86,68,39,30.07,29.98,6,2,11,0.00
2013-5-17,73.1,67.4,64.0,67.6,64.1,59.0,97,89,81,30.07,29.98,5,2,9,0.66
2013-5-18,80.3,71.2,65.2,72.6,68.5,64.3,98,92,76,30.05,29.98,5,2,9,0.02
2013-5-19,81.2,71.7,65.0,74.6,68.5,61.3,98,90,72,30.07,29.98,9,3,11,0.00
2013-5-20,81.4,70.7,60.6,71.1,65.9,59.5,97,85,67,30.09,29.98,5,2,8,0.00
2013-5-21,86.0,75.4,65.0,72.9,67.7,64.1,98,79,51,30.03,29.85,6,2,11,0.00
2013-5-22,81.3,73.0,64.9,70.2,66.2,63.2,95,80,58,29.94,29.85,7,3,12,0.01
2013-5-23,81.4,70.9,61.3,68.2,62.4,57.2,98,76,51,30.06,29.92,5,1,12,0.01
2013-5-24,71.2,62.2,52.6,57.4,52.7,48.0,94,73,47,30.27,30.05,8,2,10,0.00
2013-5-25,75.6,61.6,48.1,56.4,49.8,45.9,93,68,38,30.34,30.20,5,1,8,0.00
2013-5-26,81.9,67.3,52.1,60.4,54.0,47.2,95,66,35,30.27,30.15,4,1,8,0.00
2013-5-27,83.2,71.3,58.7,67.1,61.2,55.6,96,72,50,30.20,30.08,6,2,11,0.00
2013-5-28,83.1,74.0,64.5,66.5,62.1,58.2,81,67,53,30.15,30.05,7,3,11,0.00
2013-5-29,84.0,74.8,64.3,69.5,64.0,58.3,81,69,55,30.16,30.05,8,4,14,0.00
2013-5-30,81.4,74.9,69.6,71.2,67.0,63.0,85,77,67,30.16,30.04,10,5,14,0.00
2013-5-31,83.4,75.5,69.3,72.0,67.3,65.3,87,76,58,30.12,30.00,9,4,12,0.00
2013-6-1,83.5,74.3,68.0,74.9,68.8,64.6,96,83,69,30.04,29.93,9,3,11,0.47
2013-6-2,81.2,73.2,65.3,71.0,68.0,64.2,97,85,62,29.96,29.88,7,1,11,0.00
2013-6-3,80.5,70.5,62.5,69.6,64.2,60.2,98,82,58,29.99,29.90,4,1,6,0.00
2013-6-4,83.9,71.7,60.2,67.3,63.3,58.7,95,76,53,30.03,29.94,4,1,7,0.00
2013-6-5,77.3,69.8,65.4,73.4,67.6,63.5,98,93,84,29.98,29.83,6,1,14,0.45
2013-6-6,81.1,72.5,63.7,73.1,68.5,63.1,99,88,72,29.90,29.74,4,1,8,0.00
2013-6-7,76.4,69.5,64.1,71.8,67.9,63.7,99,95,83,29.89,29.72,2,0,4,0.48
2013-6-8,81.0,70.7,62.7,70.0,65.3,62.0,99,85,55,30.05,29.88,5,1,9,0.00
2013-6-9,83.2,73.0,67.0,72.7,69.0,64.7,97,88,65,30.05,29.91,7,3,14,0.24
2013-6-10,84.8,75.0,65.2,72.8,68.4,64.0,98,82,56,30.00,29.91,6,3,13,1.77
2013-6-11,89.6,79.4,71.2,77.5,72.8,68.8,97,81,59,30.05,29.97,5,2,12,0.00
2013-6-12,90.8,80.9,71.3,78.1,73.0,67.6,98,78,49,30.07,29.96,3,1,8,0.00
2013-6-13,88.8,79.3,71.6,78.1,73.2,66.0,92,82,67,29.97,29.78,6,2,16,0.01
2013-6-14,81.4,71.8,62.9,66.2,62.5,58.5,97,74,48,30.03,29.88,7,2,12,0.00
2013-6-15,84.9,72.8,59.9,69.1,64.0,58.8,96,76,51,30.10,30.00,6,2,9,0.00
2013-6-16,87.0,75.4,66.4,75.7,68.5,62.6,92,80,64,30.10,29.98,6,2,12,0.00
2013-6-17,86.3,73.1,67.4,77.1,69.9,66.5,98,90,68,30.02,29.91,5,1,9,0.43
2013-6-18,80.6,72.3,67.6,74.4,69.4,65.8,99,91,77,29.95,29.86,6,2,13,1.05
2013-6-19,83.5,73.8,64.9,72.3,67.5,64.1,98,82,61,30.07,29.94,5,1,8,0.00
2013-6-20,84.2,74.8,66.1,72.4,68.3,63.8,99,82,61,30.19,30.06,10,2,11,0.29
2013-6-21,83.5,74.0,65.4,71.3,67.3,64.8,98,81,58,30.23,30.12,5,1,8,0.00
2013-6-22,82.9,74.2,66.3,69.4,65.7,62.5,97,77,53,30.21,30.07,6,1,10,0.00
2013-6-23,84.3,74.7,65.5,72.3,68.1,63.0,95,81,63,30.17,30.07,5,1,9,0.00
2013-6-24,85.0,75.9,68.7,75.3,71.1,67.5,98,86,67,30.20,30.07,7,2,11,0.00
2013-6-25,87.1,77.3,71.3,76.0,72.5,70.4,97,86,66,30.14,30.01,4,2,9,0.00
2013-6-26,88.4,79.5,71.2,76.1,72.5,69.7,95,80,63,30.06,29.90,5,2,12,0.00
2013-6-27,90.3,78.9,69.0,80.0,72.7,67.2,97,82,59,29.96,29.82,7,2,12,0.20
2013-6-28,85.9,77.5,71.2,75.6,71.3,68.8,98,82,59,29.86,29.69,4,1,8,0.00
2013-6-29,85.1,76.7,67.4,71.7,66.2,60.2,98,73,45,29.72,29.66,3,1,10,0.02
2013-6-30,85.7,73.8,62.6,68.1,63.8,59.2,96,73,43,29.80,29.69,3,1,9,0.02
2013-7-1,83.7,72.7,63.0,71.1,65.8,62.4,98,81,57,29.90,29.76,4,1,10,0.00
2013-7-2,83.4,72.6,63.3,69.6,65.2,62.3,98,79,55,30.04,29.89,5,1,9,0.00
2013-7-3,79.8,71.7,66.4,71.8,68.4,64.0,98,90,71,30.10,30.02,7,2,11,0.23
2013-7-4,76.9,71.1,69.0,72.8,69.2,67.9,98,94,78,30.09,30.01,10,4,17,0.80
2013-7-5,74.8,71.1,68.6,71.3,69.5,67.2,97,95,89,30.14,30.05,8,4,17,0.07
2013-7-6,72.5,70.5,68.7,71.3,69.7,67.8,98,97,95,30.13,30.06,4,1,8,0.94
2013-7-7,84.5,75.3,69.9,75.5,71.7,69.3,99,89,68,30.14,30.07,5,2,11,0.22
2013-7-8,84.2,75.8,69.7,76.6,73.0,69.1,99,91,73,30.18,30.09,6,1,11,0.01
2013-7-9,86.6,78.2,72.4,79.0,73.8,70.3,99,87,70,30.18,30.05,5,1,8,0.00
2013-7-10,87.5,78.0,68.6,78.5,74.0,67.4,98,88,65,30.08,29.92,9,2,13,1.35
2013-7-11,84.7,74.6,68.4,77.1,71.9,67.6,99,92,75,30.01,29.87,4,1,5,0.35
2013-7-12,83.9,74.6,67.2,74.3,69.5,63.7,99,85,63,29.97,29.89,6,2,11,0.00
2013-7-13,82.3,72.6,61.5,75.4,67.9,60.3,97,86,70,30.05,29.94,5,2,8,0.00
2013-7-14,84.3,76.0,70.7,74.0,71.3,68.9,96,86,68,30.14,30.02,6,3,13,0.04
2013-7-15,84.8,77.5,72.2,74.0,71.2,69.4,93,82,63,30.25,30.13,8,3,14,0.00
2013-7-16,85.6,77.2,71.2,73.8,71.1,69.4,95,83,60,30.30,30.22,7,2,11,0.00
2013-7-17,89.6,79.3,69.3,76.8,72.8,68.5,99,82,60,30.29,30.14,6,1,9,0.16
2013-7-18,86.5,76.5,69.2,77.1,71.2,68.0,99,85,64,30.20,30.04,5,1,10,0.74
2013-7-19,88.3,78.3,69.0,77.1,72.0,68.4,98,82,59,30.11,29.96,4,1,7,0.00
2013-7-20,85.3,76.4,70.6,78.3,72.6,67.6,97,88,68,30.02,29.89,10,1,10,0.57
2013-7-21,85.1,74.4,69.7,78.2,72.2,68.9,98,93,72,30.02,29.93,4,2,10,1.43
2013-7-22,79.6,73.3,68.6,75.5,70.9,67.7,99,92,80,29.99,29.89,5,2,11,0.01
2013-7-23,75.0,71.4,69.8,73.0,70.4,68.6,99,97,90,29.97,29.86,4,2,11,0.42
2013-7-24,81.5,73.4,67.9,76.3,71.3,67.6,99,94,76,29.93,29.85,3,1,6,0.12
2013-7-25,83.1,73.7,66.0,71.5,66.8,63.3,99,81,53,30.03,29.89,4,0,6,0.00
2013-7-26,84.6,73.2,62.4,72.4,67.0,61.8,99,83,56,30.06,29.97,4,1,5,0.00
2013-7-27,83.4,74.2,67.7,71.7,68.3,65.1,98,83,56,29.98,29.90,5,1,8,0.00
2013-7-28,81.7,73.9,67.2,73.4,68.8,64.0,98,85,66,30.07,29.92,4,1,7,0.01
2013-7-29,78.3,69.8,63.7,66.5,63.4,60.2,95,81,56,30.18,30.05,4,1,5,0.00
2013-7-30,87.5,74.5,62.0,74.0,67.9,61.4,99,82,54,30.21,30.08,3,1,7,0.11
2013-7-31,82.3,73.8,69.6,76.6,71.6,68.7,98,93,79,30.11,29.94,7,2,8,2.09
2013-8-1,84.2,75.1,67.8,74.9,70.5,67.2,99,87,67,30.01,29.94,5,1,9,0.00
2013-8-2,85.0,73.7,64.8,72.8,67.7,64.4,99,83,52,30.04,29.97,4,1,9,0.00
2013-8-3,82.8,73.9,65.8,76.0,71.0,65.1,99,91,75,30.06,30.00,4,0,6,0.26
2013-8-4,85.2,75.8,67.3,75.1,71.6,66.1,99,88,68,30.08,30.00,5,1,8,0.00
2013-8-5,80.0,73.2,67.4,70.6,67.1,64.1,97,82,62,30.07,29.98,3,0,4,0.00
2013-8-6,80.1,73.7,69.4,75.5,71.1,66.2,98,92,80,30.04,29.94,6,1,8,0.32
2013-8-7,87.8,75.5,69.9,79.0,72.8,69.0,98,92,70,30.02,29.93,8,1,10,0.30
2013-8-8,87.1,75.1,67.9,79.0,72.5,67.1,98,92,73,30.02,29.94,6,2,8,0.62
2013-8-9,88.7,78.6,71.1,79.4,74.2,70.5,99,87,65,30.07,29.98,5,2,10,0.00
2013-8-10,85.0,75.5,70.5,79.5,73.1,69.8,98,92,76,30.13,30.04,6,1,9,0.02
2013-8-11,86.9,77.1,69.9,80.0,73.7,69.3,99,90,71,30.16,30.06,3,1,8,0.20
2013-8-12,86.8,78.4,71.6,79.1,74.3,70.7,98,88,69,30.11,29.97,4,1,8,0.06
2013-8-13,84.6,77.2,71.7,77.6,72.9,70.5,97,87,66,29.99,29.89,5,1,8,0.00
2013-8-14,79.7,71.7,64.0,71.3,67.2,60.7,96,86,68,30.03,29.92,5,2,10,0.00
2013-8-15,75.6,68.3,61.9,69.0,64.0,58.9,91,86,77,30.06,29.99,5,2,10,0.00
2013-8-16,69.7,66.5,64.2,65.1,62.7,60.2,94,88,83,30.10,30.02,6,2,8,0.00
2013-8-17,68.0,65.4,63.5,65.0,63.6,62.5,97,94,88,30.13,30.05,4,2,10,0.01
2013-8-18,75.3,69.4,65.3,70.2,67.1,64.1,98,93,80,30.17,30.08,5,1,9,0.03
2013-8-19,83.1,72.9,68.3,74.7,70.2,67.4,98,92,71,30.12,30.02,4,2,8,0.04
2013-8-20,82.1,74.8,68.6,76.1,72.0,68.0,99,91,76,30.14,30.06,6,2,11,0.00
2013-8-21,85.4,74.9,70.7,76.8,71.9,67.9,99,91,67,30.18,30.09,8,1,9,0.01
2013-8-22,83.0,74.6,68.9,76.6,72.0,68.3,99,92,76,30.16,30.04,5,0,6,0.45
2013-8-23,86.3,76.1,67.9,75.4,71.9,67.5,99,88,64,30.10,29.99,4,1,8,0.00
2013-8-24,84.8,76.1,68.8,75.7,71.3,67.7,99,86,67,30.21,30.05,4,2,9,0.00
2013-8-25,81.6,73.0,64.3,70.2,66.5,62.8,95,81,58,30.32,30.21,6,2,12,0.00
2013-8-26,81.0,70.6,60.4,67.4,63.4,59.3,97,80,57,30.31,30.16,4,1,9,0.00
2013-8-27,83.9,72.0,61.5,70.5,65.9,60.9,99,83,60,30.18,30.06,4,1,7,0.00
2013-8-28,86.8,75.1,65.6,73.7,69.3,64.8,98,84,57,30.09,30.01,4,0,8,0.00
2013-8-29,88.6,77.7,68.1,76.3,71.6,67.4,98,83,61,30.07,29.96,2,0,6,0.00
2013-8-30,90.4,79.1,70.4,78.8,73.7,69.6,98,85,62,30.01,29.91,5,1,9,0.00
2013-8-31,89.5,78.9,70.9,77.8,73.5,70.3,99,84,61,29.95,29.85,4,1,7,0.00
2013-9-1,88.6,78.9,72.4,76.7,72.9,70.1,96,83,55,29.93,29.84,4,1,11,0.00
2013-9-2,83.8,74.4,68.2,73.7,70.7,67.2,98,89,68,30.01,29.85,7,1,9,2.24
2013-9-3,85.0,75.5,66.4,74.9,70.2,65.3,98,85,57,30.00,29.90,4,1,9,0.00
2013-9-4,83.6,72.1,63.8,69.8,65.9,63.1,99,83,54,30.12,29.99,4,1,8,0.00
2013-9-5,83.3,71.5,61.8,70.3,65.6,61.4,99,84,51,30.17,30.09,3,1,8,0.00
2013-9-6,85.7,73.1,63.9,73.5,67.5,63.3,99,84,57,30.16,30.05,4,1,6,0.01
2013-9-7,85.7,74.5,67.1,73.4,69.6,66.3,99,86,59,30.11,30.00,4,0,4,0.00
2013-9-8,87.4,75.6,65.0,75.1,69.7,64.4,98,83,58,30.03,29.95,2,0,6,0.00
2013-9-9,87.7,76.6,68.4,76.4,71.4,67.8,99,85,59,30.09,30.00,4,0,6,0.00
2013-9-10,86.3,77.2,70.1,76.4,71.4,68.9,97,84,58,30.18,30.09,6,1,8,0.00
2013-9-11,86.3,75.2,66.5,73.8,68.9,65.4,99,83,53,30.21,30.09,4,1,8,0.00
2013-9-12,87.6,75.7,65.0,72.3,68.4,64.1,98,80,53,30.09,29.92,6,1,8,0.04
2013-9-13,81.1,71.0,61.7,69.3,62.7,54.0,99,77,44,29.96,29.89,5,2,11,0.01
2013-9-14,75.3,62.5,51.4,61.1,55.5,50.5,97,80,51,30.07,29.96,5,1,8,0.00
2013-9-15,80.7,67.2,58.5,67.8,62.0,57.4,98,85,48,30.14,30.07,6,1,13,0.00
2013-9-16,82.6,69.7,59.7,69.8,63.1,59.4,99,82,48,30.17,30.09,5,1,7,0.00
2013-9-17,82.4,71.9,63.5,71.2,66.0,61.1,93,82,66,30.18,30.09,5,3,11,0.00
2013-9-18,79.7,70.6,64.0,69.1,64.6,60.4,93,82,67,30.20,30.09,7,3,11,0.00
2013-9-19,81.5,71.1,62.9,69.4,65.2,61.3,96,83,63,30.18,30.05,6,1,9,0.00
2013-9-20,84.1,73.6,63.8,69.7,66.1,62.1,95,79,56,30.06,29.85,6,2,9,0.02
2013-9-21,71.5,67.0,56.7,70.8,65.5,55.6,98,95,88,29.85,29.74,6,2,10,2.12
2013-9-22,74.9,61.7,51.3,60.8,55.5,50.7,99,82,47,29.92,29.83,7,2,11,0.00
2013-9-23,78.6,65.5,54.4,65.6,59.7,53.8,99,83,54,29.99,29.91,5,1,10,0.01
2013-9-24,69.7,66.3,61.2,67.3,64.6,60.1,98,94,91,29.99,29.86,6,2,13,0.00
2013-9-25,74.9,67.7,64.5,69.3,65.8,63.5,98,94,81,29.88,29.81,4,1,8,0.16
2013-9-26,77.3,67.8,62.6,66.5,63.6,61.4,98,87,64,30.02,29.87,4,1,7,0.00
2013-9-27,77.7,67.2,59.7,67.5,61.4,56.0,99,84,49,30.14,30.01,5,1,8,0.00
2013-9-28,75.6,64.6,55.7,62.1,58.5,55.1,98,82,54,30.22,30.10,7,2,10,0.01
2013-9-29,73.6,63.5,53.6,62.4,57.6,52.8,97,82,60,30.14,30.02,6,2,11,0.00
2013-9-30,73.9,64.7,59.7,63.7,59.8,57.4,97,84,67,30.09,29.99,4,1,9,0.00
2013-10-1,79.8,67.8,58.7,69.9,64.1,58.1,98,89,67,30.15,30.04,5,1,10,0.00
2013-10-2,80.3,69.9,61.1,69.6,65.3,60.8,99,87,58,30.16,30.06,3,0,7,0.00
2013-10-3,81.1,71.3,64.1,68.0,65.2,63.2,98,83,59,30.13,30.04,5,1,8,0.00
2013-10-4,82.4,71.0,62.2,72.0,66.5,61.3,98,87,66,30.14,30.06,4,1,8,0.00
2013-10-5,84.4,72.9,63.6,72.0,66.9,63.2,99,83,61,30.10,29.96,6,2,12,0.00
2013-10-6,80.1,70.2,55.9,71.5,65.7,53.6,95,86,72,29.96,29.82,8,3,13,0.03
2013-10-7,68.1,58.4,51.3,54.5,51.2,48.7,98,79,53,30.07,29.90,6,2,11,0.03
2013-10-8,74.5,62.2,49.7,63.4,54.9,46.9,91,78,58,30.11,30.03,5,2,8,0.00
2013-10-9,73.5,65.2,59.3,61.3,56.7,50.6,93,75,58,30.20,30.10,6,2,11,0.00
2013-10-10,77.2,65.7,58.3,66.0,60.4,57.4,98,84,57,30.16,30.04,4,0,5,0.00
2013-10-11,77.8,64.0,55.3,64.0,58.9,54.6,99,85,52,30.11,30.02,3,0,6,0.00
2013-10-12,78.9,64.3,53.9,63.9,59.0,53.4,99,85,54,30.13,30.04,4,0,8,0.00
2013-10-13,79.4,66.0,56.9,64.2,59.4,56.3,99,82,53,30.23,30.13,5,1,6,0.00
2013-10-14,77.0,65.1,55.0,65.8,60.2,54.3,98,85,62,30.23,30.10,5,1,9,0.00
2013-10-15,70.7,63.8,58.9,62.7,60.0,58.1,97,88,70,30.14,30.03,7,2,10,0.00
2013-10-16,70.2,64.4,59.9,65.7,62.3,58.3,98,93,81,30.06,29.94,4,2,9,0.27
2013-10-17,66.1,61.9,50.5,65.7,60.7,50.0,99,96,91,30.02,29.89,5,1,9,0.12
2013-10-18,65.2,54.1,47.2,55.8,50.5,46.8,99,89,63,30.11,29.99,4,0,6,0.00
2013-10-19,68.7,56.0,44.8,57.7,52.0,43.7,98,87,66,30.06,29.95,5,1,11,0.01
2013-10-20,64.2,48.7,38.2,46.5,41.4,34.6,99,80,36,30.13,30.05,5,1,6,0.01
2013-10-21,69.6,54.2,40.7,52.1,46.4,40.2,99,78,41,30.15,30.04,3,1,7,0.00
2013-10-22,67.0,57.4,48.7,57.0,52.7,47.8,97,85,66,30.06,29.91,3,0,6,0.00
2013-10-23,57.1,48.0,38.3,48.1,41.8,36.7,97,81,49,30.15,29.91,4,1,11,0.01
2013-10-24,63.1,47.9,36.2,45.2,40.6,35.2,97,78,47,30.33,30.15,6,1,12,0.00
2013-10-25,51.5,39.6,29.7,36.3,30.6,27.0,94,72,42,30.50,30.33,6,1,11,0.00
2013-10-26,62.1,45.3,30.1,41.1,34.5,28.8,98,71,32,30.39,30.19,4,1,8,0.00
2013-10-27,68.5,57.2,48.0,54.8,48.8,40.0,94,74,56,30.19,30.11,5,1,6,0.02
2013-10-28,64.6,57.9,52.5,58.9,55.3,51.9,98,91,80,30.27,30.13,3,1,7,0.02
2013-10-29,75.2,61.7,51.9,63.1,57.7,51.4,99,88,62,30.33,30.22,5,1,10,0.01
2013-10-30,77.7,66.4,57.0,62.6,58.2,55.6,95,76,53,30.29,30.12,5,2,9,0.00
2013-10-31,72.7,66.3,61.7,66.8,61.4,55.5,96,85,74,30.12,29.74,11,5,23,0.15
2013-11-1,70.1,59.7,48.7,64.4,53.4,45.9,98,82,47,29.88,29.74,7,1,11,0.12
2013-11-2,64.5,52.7,44.2,51.3,43.5,38.3,96,74,40,30.16,29.87,5,1,14,0.00
2013-11-3,60.0,46.6,37.7,42.4,38.7,33.5,98,77,38,30.33,30.16,5,1,9,0.00
2013-11-4,64.9,52.4,40.6,44.4,40.2,37.2,92,65,38,30.43,30.30,10,3,19,0.00
2013-11-5,60.7,53.1,47.1,46.4,40.8,37.3,81,63,54,30.43,30.30,8,4,12,0.00
2013-11-6,72.0,62.2,51.6,61.0,55.9,41.8,97,80,66,30.29,30.08,9,4,15,0.20
2013-11-7,61.9,48.0,34.5,60.9,42.0,31.6,98,81,51,30.34,30.06,7,2,14,0.19
2013-11-8,56.6,42.3,31.2,37.7,33.8,29.4,94,74,39,30.43,30.29,6,1,11,0.00
2013-11-9,58.7,48.6,38.2,44.0,38.5,31.9,93,70,45,30.37,30.24,6,1,8,0.00
2013-11-10,67.6,52.5,42.0,47.5,42.2,37.5,92,71,36,30.36,30.27,7,1,12,0.00
2013-11-11,67.1,49.8,38.0,38.0,32.9,18.1,91,58,16,30.34,30.20,5,1,7,0.00
2013-11-12,50.5,41.3,30.4,44.2,28.2,15.4,84,60,40,30.57,30.20,11,4,15,0.00
2013-11-13,46.6,33.2,23.9,23.0,18.3,13.3,79,57,27,30.70,30.51,7,2,11,0.00
2013-11-14,55.9,40.4,27.2,28.9,22.6,17.6,92,53,22,30.53,30.29,5,2,10,0.00
2013-11-15,55.2,49.6,43.1,49.9,42.5,25.9,98,78,47,30.29,30.11,8,3,14,0.21
2013-11-16,65.5,57.8,49.9,60.0,55.3,49.4,98,92,81,30.19,30.05,10,5,15,0.00
2013-11-17,69.2,64.8,60.4,68.6,63.5,57.5,99,96,89,30.06,29.87,8,5,15,0.36
2013-11-18,65.5,56.8,46.5,58.3,42.9,32.5,89,62,31,30.17,29.95,8,2,14,0.00
2013-11-19,55.0,44.3,35.0,33.1,29.3,22.4,83,58,29,30.24,30.15,8,3,16,0.00
2013-11-20,59.2,48.7,35.5,39.5,34.7,29.6,83,59,46,30.30,30.18,10,4,16,0.00
2013-11-21,59.9,55.3,50.6,54.6,47.6,39.3,88,75,63,30.35,30.26,9,4,14,0.00
2013-11-22,61.8,56.7,50.0,60.6,54.8,48.8,98,93,85,30.32,30.21,6,2,9,0.06
2013-11-23,50.0,43.3,29.4,48.9,37.7,21.8,98,81,57,30.44,30.23,10,4,18,0.00
2013-11-24,40.5,29.9,22.7,22.0,17.5,12.5,83,62,35,30.60,30.43,9,3,14,0.00
2013-11-25,41.0,35.5,26.4,35.9,23.7,15.2,96,64,40,30.49,30.16,9,4,13,0.33
2013-11-26,46.1,40.3,33.9,45.6,39.5,32.5,98,97,95,30.16,29.81,8,4,18,2.42
2013-11-27,36.0,30.8,22.3,32.6,22.6,14.2,95,72,57,30.42,29.90,7,3,19,0.00
2013-11-28,44.1,29.1,18.1,20.7,17.2,14.1,87,64,32,30.56,30.40,4,1,5,0.00
2013-11-29,54.0,36.9,24.5,29.8,24.8,18.3,93,65,34,30.63,30.52,5,1,5,0.00
2013-11-30,52.8,42.5,34.6,32.1,29.8,27.8,80,62,38,30.57,30.33,8,3,11,0.00
2013-12-1,56.2,45.3,31.7,42.2,35.8,28.8,90,70,49,30.33,30.02,5,1,9,0.00
2013-12-2,54.1,50.1,45.7,52.3,48.6,40.9,98,95,72,30.02,29.81,5,1,7,0.37
2013-12-3,60.0,54.6,49.7,58.4,54.0,49.3,99,98,92,29.87,29.80,6,3,10,0.01
2013-12-4,71.2,64.7,58.9,64.9,62.1,58.3,99,92,77,29.97,29.86,9,5,14,0.00
2013-12-5,75.3,66.0,50.9,68.5,63.8,50.1,97,93,76,30.02,29.91,7,4,12,0.00
2013-12-6,51.1,41.5,34.8,50.3,40.9,34.0,99,98,97,30.28,29.94,5,2,11,0.99
2013-12-7,35.3,33.7,31.6,34.0,32.5,30.8,98,95,93,30.46,30.27,7,4,16,0.00
2013-12-8,49.5,45.5,35.4,49.0,45.0,34.0,99,98,95,30.31,30.10,7,3,11,0.92
2013-12-9,48.8,43.2,37.3,48.5,42.6,36.8,99,98,94,30.21,30.06,5,1,10,0.68
2013-12-10,39.8,33.1,26.4,36.9,30.5,25.7,98,91,68,30.43,30.06,6,2,10,0.20
2013-12-11,51.8,34.9,24.9,33.8,27.9,23.9,98,78,44,30.51,30.42,5,1,11,0.01
2013-12-12,40.2,30.4,22.4,27.5,20.1,12.5,90,68,37,30.61,30.47,7,2,10,0.00
2013-12-13,47.0,36.9,24.7,33.2,26.9,19.4,94,69,45,30.46,30.16,6,2,9,0.00
2013-12-14,53.2,47.0,37.2,52.6,44.1,29.8,98,90,58,30.16,29.84,13,5,19,0.74
2013-12-15,37.1,33.7,29.9,35.1,31.1,27.7,94,90,86,30.32,30.01,5,2,12,0.00
2013-12-16,53.2,39.3,26.6,36.3,31.3,25.7,97,75,49,30.35,30.23,7,2,11,0.00
2013-12-17,60.5,46.8,35.7,40.3,35.5,30.0,85,66,45,30.31,30.14,8,3,14,0.00
2013-12-18,52.6,39.5,28.2,30.1,25.7,19.8,89,61,29,30.42,30.29,4,1,7,0.00
2013-12-19,60.5,46.9,31.4,34.8,30.8,26.4,86,56,35,30.34,30.16,8,3,14,0.00
2013-12-20,66.3,58.8,50.3,58.3,50.0,32.8,90,73,51,30.17,30.02,10,6,25,0.00
2013-12-21,71.3,65.8,60.5,67.1,63.4,58.2,98,92,85,30.02,29.78,11,8,22,0.36
2013-12-22,70.2,56.1,53.2,66.5,54.8,52.7,98,95,87,30.10,29.77,11,3,20,1.24
2013-12-23,53.4,38.6,29.0,52.8,36.0,25.9,98,90,81,30.45,30.07,6,3,15,0.06
2013-12-24,35.0,28.2,22.3,26.5,21.9,17.3,92,78,57,30.58,30.43,7,2,12,0.00
2013-12-25,46.0,32.2,19.5,29.2,23.8,17.3,92,73,45,30.51,30.39,9,2,13,0.00
2013-12-26,48.8,34.5,27.4,33.7,28.7,25.1,93,81,51,30.45,30.37,7,1,8,0.00
2013-12-27,52.7,37.7,26.4,32.9,28.3,24.5,93,72,38,30.52,30.41,5,1,6,0.00
2013-12-28,43.1,39.7,35.3,39.4,36.0,30.4,97,87,70,30.42,29.97,9,3,13,1.14
2013-12-29,51.0,42.8,39.0,44.4,40.4,37.3,98,92,66,30.13,29.95,4,1,7,0.14
2013-12-30,44.0,38.0,33.9,41.5,35.6,32.6,95,91,83,30.32,30.11,4,1,8,0.00
2013-12-31,40.7,33.8,30.5,32.0,29.3,27.3,94,84,60,30.52,30.31,6,1,10,0.00
2014-1-1,48.9,38.9,28.7,41.0,33.5,27.4,97,82,59,30.40,30.10,7,2,11,0.00
2014-1-2,48.1,37.0,21.2,47.6,33.7,13.0,98,88,67,30.35,29.91,8,4,20,0.41